Time,TemperatureF,DewpointF,PressureIn,WindDirection,WindDirectionDegrees,WindSpeedMPH,WindSpeedGustMPH,Humidity,HourlyPrecipIn,Conditions,Clouds,dailyrainin,SolarRadiationWatts/m^2,SoftwareType,DateUTC
2013-01-25 00:00:00,9.6,-12.0,30.16,NW,311,2.0,16.0,36,0.00,,OVC021,0.00,0.00,VWS V14.01,2013-01-25 05:00:00,
2013-01-25 00:05:00,9.4,-12.1,30.15,WNW,288,10.0,16.0,36,0.00,,OVC021,0.00,0.00,VWS V14.01,2013-01-25 05:05:00,
2013-01-25 00:10:00,9.4,-12.1,30.14,NNW,327,13.0,21.0,36,0.00,,OVC021,0.00,0.00,VWS V14.01,2013-01-25 05:10:00,
2013-01-25 00:15:00,9.4,-12.1,30.15,NNW,329,16.0,21.0,36,0.00,,OVC021,0.00,0.00,VWS V14.01,2013-01-25 05:15:00,
2013-01-25 00:20:00,9.3,-12.2,30.15,North,360,4.0,16.0,36,0.00,,OVC021,0.00,0.00,VWS V14.01,2013-01-25 05:20:00,
2013-01-25 00:25:00,9.3,-12.2,30.16,NW,317,10.0,17.0,36,0.00,,OVC021,0.00,0.00,VWS V14.01,2013-01-25 05:25:00,
2013-01-25 00:30:00,9.2,-11.8,30.15,North,360,12.0,16.0,37,0.00,,OVC021,0.00,0.00,VWS V14.01,2013-01-25 05:30:00,
2013-01-25 00:35:00,9.1,-11.9,30.15,NNW,337,12.0,20.0,37,0.00,,OVC021,0.00,0.00,VWS V14.01,2013-01-25 05:35:00,
2013-01-25 00:40:00,9.1,-11.9,30.15,NW,316,5.0,17.0,37,0.00,,OVC021,0.00,0.00,VWS V14.01,2013-01-25 05:40:00,
2013-01-25 00:45:00,9.0,-12.0,30.16,NW,304,11.0,18.0,37,0.00,,OVC021,0.00,0.00,VWS V14.01,2013-01-25 05:45:00,
2013-01-25 00:50:00,8.9,-11.5,30.16,NW,312,4.0,11.0,38,0.00,,OVC021,0.00,0.00,VWS V14.01,2013-01-25 05:50:00,
2013-01-25 00:55:00,8.8,-11.6,30.16,WNW,290,5.0,14.0,38,0.00,,OVC021,0.00,0.00,VWS V14.01,2013-01-25 05:55:00,
2013-01-25 01:00:00,8.7,-11.7,30.16,WNW,297,11.0,15.0,38,0.00,,OVC021,0.00,0.00,VWS V14.01,2013-01-25 06:00:00,
2013-01-25 01:05:00,8.6,-11.3,30.16,West,269,4.0,10.0,39,0.00,,OVC021,0.00,0.00,VWS V14.01,2013-01-25 06:05:00,
2013-01-25 01:10:00,8.5,-11.4,30.17,WNW,291,5.0,12.0,39,0.00,,OVC021,0.00,0.00,VWS V14.01,2013-01-25 06:10:00,
2013-01-25 01:15:00,8.3,-11.0,30.16,NW,305,3.0,8.0,40,0.00,,OVC021,0.00,0.00,VWS V14.01,2013-01-25 06:15:00,
2013-01-25 01:20:00,8.3,-11.0,30.17,NW,304,8.0,16.0,40,0.00,,OVC021,0.00,0.00,VWS V14.01,2013-01-25 06:20:00,
2013-01-25 01:25:00,8.2,-11.1,30.17,NNW,333,6.0,10.0,40,0.00,,OVC021,0.00,0.00,VWS V14.01,2013-01-25 06:25:00,
2013-01-25 01:30:00,8.2,-11.1,30.17,NW,318,9.0,13.0,40,0.00,,OVC021,0.00,0.00,VWS V14.01,2013-01-25 06:30:00,
2013-01-25 01:35:00,8.2,-10.6,30.17,West,279,6.0,14.0,41,0.00,,OVC021,0.00,0.00,VWS V14.01,2013-01-25 06:35:00,
2013-01-25 01:40:00,8.3,-11.0,30.17,NW,321,6.0,15.0,40,0.00,,OVC021,0.00,0.00,VWS V14.01,2013-01-25 06:40:00,
2013-01-25 01:45:00,8.3,-10.5,30.18,West,277,6.0,16.0,41,0.00,,OVC021,0.00,0.00,VWS V14.01,2013-01-25 06:45:00,
2013-01-25 01:50:00,8.2,-10.6,30.18,WNW,287,4.0,11.0,41,0.00,,OVC021,0.00,0.00,VWS V14.01,2013-01-25 06:50:00,
2013-01-25 01:55:00,8.1,-10.7,30.18,West,277,6.0,11.0,41,0.00,,OVC021,0.00,0.00,VWS V14.01,2013-01-25 06:55:00,
2013-01-25 02:00:00,8.1,-10.7,30.17,West,264,8.0,13.0,41,0.00,,OVC021,0.00,0.00,VWS V14.01,2013-01-25 07:00:00,
2013-01-25 02:05:00,8.2,-10.6,30.17,NW,307,4.0,15.0,41,0.00,,OVC021,0.00,0.00,VWS V14.01,2013-01-25 07:05:00,
2013-01-25 02:10:00,8.1,-10.2,30.18,WNW,292,3.0,13.0,42,0.00,,OVC021,0.00,0.00,VWS V14.01,2013-01-25 07:10:00,
2013-01-25 02:15:00,8.1,-10.2,30.18,WNW,288,9.0,12.0,42,0.00,,OVC021,0.00,0.00,VWS V14.01,2013-01-25 07:15:00,
2013-01-25 02:20:00,8.1,-10.2,30.18,WNW,295,11.0,15.0,42,0.00,,OVC021,0.00,0.00,VWS V14.01,2013-01-25 07:20:00,
2013-01-25 02:25:00,8.2,-10.1,30.18,NW,323,6.0,15.0,42,0.00,,OVC021,0.00,0.00,VWS V14.01,2013-01-25 07:25:00,
2013-01-25 02:30:00,8.2,-10.1,30.18,WNW,294,11.0,14.0,42,0.00,,OVC021,0.00,0.00,VWS V14.01,2013-01-25 07:30:00,
2013-01-25 02:35:00,8.3,-10.1,30.19,WNW,300,11.0,17.0,42,0.00,,OVC021,0.00,0.00,VWS V14.01,2013-01-25 07:35:00,
2013-01-25 02:40:00,8.4,-10.0,30.19,WNW,302,14.0,19.0,42,0.00,,OVC021,0.00,0.00,VWS V14.01,2013-01-25 07:40:00,
2013-01-25 02:45:00,8.4,-10.0,30.19,West,266,12.0,14.0,42,0.00,,OVC021,0.00,0.00,VWS V14.01,2013-01-25 07:45:00,
2013-01-25 02:50:00,8.3,-9.6,30.19,NW,315,7.0,16.0,43,0.00,,OVC021,0.00,0.00,VWS V14.01,2013-01-25 07:50:00,
2013-01-25 02:55:00,8.3,-9.6,30.19,NW,310,6.0,11.0,43,0.00,,OVC021,0.00,0.00,VWS V14.01,2013-01-25 07:55:00,
2013-01-25 03:00:00,8.3,-9.6,30.19,WNW,298,4.0,14.0,43,0.00,,OVC021,0.00,0.00,VWS V14.01,2013-01-25 08:00:00,
2013-01-25 03:05:00,8.1,-9.8,30.19,NW,322,4.0,12.0,43,0.00,,OVC021,0.00,0.00,VWS V14.01,2013-01-25 08:05:00,
2013-01-25 03:10:00,8.0,-9.9,30.18,WNW,296,3.0,7.0,43,0.00,,OVC021,0.00,0.00,VWS V14.01,2013-01-25 08:10:00,
2013-01-25 03:15:00,7.8,-10.0,30.19,NW,304,2.0,8.0,43,0.00,,OVC021,0.00,0.00,VWS V14.01,2013-01-25 08:15:00,
2013-01-25 03:20:00,7.6,-9.8,30.19,WNW,300,7.0,8.0,44,0.00,,OVC021,0.00,0.00,VWS V14.01,2013-01-25 08:20:00,
2013-01-25 03:25:00,7.5,-9.8,30.19,NW,313,8.0,8.0,44,0.00,,OVC021,0.00,0.00,VWS V14.01,2013-01-25 08:25:00,
2013-01-25 03:30:00,7.6,-9.8,30.19,NW,319,6.0,10.0,44,0.00,,OVC021,0.00,0.00,VWS V14.01,2013-01-25 08:30:00,
2013-01-25 03:35:00,7.6,-9.8,30.19,WNW,291,4.0,9.0,44,0.00,,OVC021,0.00,0.00,VWS V14.01,2013-01-25 08:35:00,
2013-01-25 03:40:00,7.5,-9.8,30.19,WNW,295,3.0,7.0,44,0.00,,OVC021,0.00,0.00,VWS V14.01,2013-01-25 08:40:00,
2013-01-25 03:45:00,7.4,-9.9,30.18,WNW,290,4.0,7.0,44,0.00,,OVC021,0.00,0.00,VWS V14.01,2013-01-25 08:45:00,
2013-01-25 03:50:00,7.3,-10.0,30.19,West,268,7.0,8.0,44,0.00,,OVC021,0.00,0.00,VWS V14.01,2013-01-25 08:50:00,
2013-01-25 03:55:00,7.3,-10.0,30.19,WNW,288,2.0,7.0,44,0.00,,OVC021,0.00,0.00,VWS V14.01,2013-01-25 08:55:00,
2013-01-25 04:00:00,7.2,-10.1,30.19,West,279,3.0,6.0,44,0.00,,OVC021,0.00,0.00,VWS V14.01,2013-01-25 09:00:00,
2013-01-25 04:05:00,7.0,-9.9,30.20,West,259,5.0,6.0,45,0.00,,OVC021,0.00,0.00,VWS V14.01,2013-01-25 09:05:00,
2013-01-25 04:10:00,6.9,-9.5,30.20,WSW,257,1.0,5.0,46,0.00,,OVC021,0.00,0.00,VWS V14.01,2013-01-25 09:10:00,
2013-01-25 04:15:00,6.6,-9.8,30.19,WSW,257,1.0,2.0,46,0.00,,OVC021,0.00,0.00,VWS V14.01,2013-01-25 09:15:00,
2013-01-25 04:20:00,6.5,-9.9,30.19,West,275,2.0,5.0,46,0.00,,OVC021,0.00,0.00,VWS V14.01,2013-01-25 09:20:00,
2013-01-25 04:25:00,6.3,-10.1,30.19,WNW,284,3.0,5.0,46,0.00,,OVC021,0.00,0.00,VWS V14.01,2013-01-25 09:25:00,
2013-01-25 04:30:00,6.3,-10.1,30.20,WNW,284,5.0,6.0,46,0.00,,OVC021,0.00,0.00,VWS V14.01,2013-01-25 09:30:00,
2013-01-25 04:35:00,6.2,-9.7,30.19,WNW,292,3.0,5.0,47,0.00,,OVC021,0.00,0.00,VWS V14.01,2013-01-25 09:35:00,
2013-01-25 04:40:00,6.1,-9.8,30.19,WNW,290,2.0,5.0,47,0.00,,OVC021,0.00,0.00,VWS V14.01,2013-01-25 09:40:00,
2013-01-25 04:45:00,6.0,-9.5,30.20,West,275,4.0,6.0,48,0.00,,OVC021,0.00,0.00,VWS V14.01,2013-01-25 09:45:00,
2013-01-25 04:50:00,5.9,-9.6,30.20,West,271,3.0,5.0,48,0.00,,OVC021,0.00,0.00,VWS V14.01,2013-01-25 09:50:00,
2013-01-25 04:55:00,5.9,-9.6,30.20,West,272,3.0,4.0,48,0.00,,OVC021,0.00,0.00,VWS V14.01,2013-01-25 09:55:00,
2013-01-25 05:00:00,5.8,-9.6,30.20,West,271,3.0,5.0,48,0.00,,OVC021,0.00,0.00,VWS V14.01,2013-01-25 10:00:00,
2013-01-25 05:05:00,5.8,-9.6,30.20,West,271,3.0,3.0,48,0.00,,OVC021,0.00,0.00,VWS V14.01,2013-01-25 10:05:00,
2013-01-25 05:10:00,5.8,-9.2,30.20,West,276,2.0,6.0,49,0.00,,OVC021,0.00,0.00,VWS V14.01,2013-01-25 10:10:00,
2013-01-25 05:15:00,5.8,-9.2,30.20,West,276,4.0,5.0,49,0.00,,OVC021,0.00,0.00,VWS V14.01,2013-01-25 10:15:00,
2013-01-25 05:20:00,5.7,-9.3,30.20,West,279,3.0,6.0,49,0.00,,OVC021,0.00,0.00,VWS V14.01,2013-01-25 10:20:00,
2013-01-25 05:25:00,5.7,-9.7,30.21,West,279,2.0,8.0,48,0.00,,OVC021,0.00,0.00,VWS V14.01,2013-01-25 10:25:00,
2013-01-25 05:30:00,5.8,-9.2,30.21,West,281,3.0,7.0,49,0.00,,OVC021,0.00,0.00,VWS V14.01,2013-01-25 10:30:00,
2013-01-25 05:35:00,5.8,-9.2,30.21,WNW,283,4.0,8.0,49,0.00,,OVC021,0.00,0.00,VWS V14.01,2013-01-25 10:35:00,
2013-01-25 05:40:00,5.8,-9.2,30.21,WNW,292,4.0,7.0,49,0.00,,OVC021,0.00,0.00,VWS V14.01,2013-01-25 10:40:00,
2013-01-25 05:45:00,5.8,-9.2,30.21,West,259,5.0,8.0,49,0.00,,OVC021,0.00,0.00,VWS V14.01,2013-01-25 10:45:00,
2013-01-25 05:50:00,5.9,-9.1,30.21,West,271,3.0,7.0,49,0.00,,OVC021,0.00,0.00,VWS V14.01,2013-01-25 10:50:00,
2013-01-25 05:55:00,6.0,-9.1,30.22,WSW,256,11.0,11.0,49,0.00,,OVC021,0.00,0.00,VWS V14.01,2013-01-25 10:55:00,
2013-01-25 06:00:00,6.1,-9.4,30.21,West,267,4.0,11.0,48,0.00,,OVC021,0.00,0.00,VWS V14.01,2013-01-25 11:00:00,
2013-01-25 06:05:00,6.3,-9.2,30.21,SSW,213,5.0,8.0,48,0.00,,OVC021,0.00,0.00,VWS V14.01,2013-01-25 11:05:00,
2013-01-25 06:06:00,6.3,-9.2,30.21,West,265,3.0,8.0,48,0.00,,OVC021,0.00,0.00,VWS V14.01,2013-01-25 11:06:00,
2013-01-25 06:07:00,6.2,-9.3,30.21,West,275,6.0,8.0,48,0.00,,OVC021,0.00,0.00,VWS V14.01,2013-01-25 11:07:00,
2013-01-25 06:10:00,6.2,-9.3,30.21,West,279,6.0,8.0,48,0.00,,OVC021,0.00,0.00,VWS V14.01,2013-01-25 11:10:00,
2013-01-25 06:12:00,6.3,-9.2,30.21,West,280,3.0,8.0,48,0.00,,OVC021,0.00,0.00,VWS V14.01,2013-01-25 11:12:00,
2013-01-25 06:15:00,6.3,-9.2,30.21,West,275,4.0,8.0,48,0.00,,OVC021,0.00,0.00,VWS V14.01,2013-01-25 11:15:00,
2013-01-25 06:17:00,6.3,-9.2,30.21,West,261,2.0,8.0,48,0.00,,OVC021,0.00,0.00,VWS V14.01,2013-01-25 11:17:00,
2013-01-25 06:20:00,6.3,-9.2,30.21,West,259,3.0,8.0,48,0.00,,OVC021,0.00,0.00,VWS V14.01,2013-01-25 11:20:00,
2013-01-25 06:22:00,6.4,-9.1,30.21,WNW,285,3.0,10.0,48,0.00,,OVC021,0.00,0.00,VWS V14.01,2013-01-25 11:22:00,
2013-01-25 06:25:00,6.4,-9.1,30.21,West,274,5.0,10.0,48,0.00,,OVC021,0.00,0.00,VWS V14.01,2013-01-25 11:25:00,
2013-01-25 06:27:00,6.5,-9.0,30.21,West,280,7.0,11.0,48,0.00,,OVC021,0.00,0.00,VWS V14.01,2013-01-25 11:27:00,
2013-01-25 06:30:00,6.5,-9.0,30.21,WNW,288,7.0,11.0,48,0.00,,OVC021,0.00,0.00,VWS V14.01,2013-01-25 11:30:00,
2013-01-25 06:32:00,6.5,-9.0,30.21,West,279,6.0,11.0,48,0.00,,OVC021,0.00,0.00,VWS V14.01,2013-01-25 11:32:00,
2013-01-25 06:35:00,6.5,-9.0,30.21,WNW,283,7.0,11.0,48,0.00,,OVC021,0.00,0.00,VWS V14.01,2013-01-25 11:35:00,
2013-01-25 06:37:00,6.6,-9.3,30.21,West,273,9.0,10.0,47,0.00,,OVC021,0.00,0.00,VWS V14.01,2013-01-25 11:37:00,
2013-01-25 06:40:00,6.6,-9.3,30.21,West,263,6.0,10.0,47,0.00,,OVC021,0.00,0.00,VWS V14.01,2013-01-25 11:40:00,
2013-01-25 06:42:00,6.7,-9.2,30.21,WNW,282,5.0,10.0,47,0.00,,OVC021,0.00,0.00,VWS V14.01,2013-01-25 11:42:00,
2013-01-25 06:45:00,6.7,-9.2,30.21,West,269,8.0,10.0,47,0.00,,OVC021,0.00,0.00,VWS V14.01,2013-01-25 11:45:00,
2013-01-25 06:48:00,6.7,-9.2,30.21,WNW,286,6.0,11.0,47,0.00,,OVC021,0.00,0.00,VWS V14.01,2013-01-25 11:48:00,
2013-01-25 06:50:00,6.7,-9.2,30.21,WNW,297,3.0,11.0,47,0.00,,OVC021,0.00,0.00,VWS V14.01,2013-01-25 11:50:00,
2013-01-25 06:53:00,6.7,-9.2,30.21,WNW,284,4.0,10.0,47,0.00,,OVC021,0.00,0.00,VWS V14.01,2013-01-25 11:53:00,
2013-01-25 06:55:00,6.7,-9.2,30.21,West,281,6.0,10.0,47,0.00,,OVC021,0.00,0.00,VWS V14.01,2013-01-25 11:55:00,
2013-01-25 06:58:00,6.8,-9.1,30.21,WNW,296,3.0,10.0,47,0.00,,OVC021,0.00,5.00,VWS V14.01,2013-01-25 11:58:00,
2013-01-25 07:00:00,6.9,-9.1,30.21,West,265,2.0,10.0,47,0.00,,OVC021,0.00,5.00,VWS V14.01,2013-01-25 12:00:00,
2013-01-25 07:03:00,6.8,-9.1,30.21,WNW,288,4.0,8.0,47,0.00,,OVC021,0.00,5.00,VWS V14.01,2013-01-25 12:03:00,
2013-01-25 07:05:00,6.8,-9.1,30.21,West,277,5.0,8.0,47,0.00,,OVC021,0.00,5.00,VWS V14.01,2013-01-25 12:05:00,
2013-01-25 07:08:00,6.8,-9.1,30.21,WSW,245,6.0,8.0,47,0.00,,OVC021,0.00,7.00,VWS V14.01,2013-01-25 12:08:00,
2013-01-25 07:10:00,6.8,-9.1,30.21,WSW,254,4.0,8.0,47,0.00,,OVC021,0.00,7.00,VWS V14.01,2013-01-25 12:10:00,
2013-01-25 07:13:00,6.8,-9.1,30.21,WNW,286,4.0,7.0,47,0.00,,OVC021,0.00,11.00,VWS V14.01,2013-01-25 12:13:00,
2013-01-25 07:15:00,6.8,-9.1,30.21,WNW,285,4.0,7.0,47,0.00,,OVC021,0.00,11.00,VWS V14.01,2013-01-25 12:15:00,
2013-01-25 07:18:00,6.6,-8.9,30.22,West,267,8.0,12.0,48,0.00,,OVC021,0.00,18.00,VWS V14.01,2013-01-25 12:18:00,
2013-01-25 07:20:00,6.6,-8.9,30.22,West,267,8.0,12.0,48,0.00,,OVC021,0.00,18.00,VWS V14.01,2013-01-25 12:20:00,
2013-01-25 07:23:00,6.7,-9.2,30.21,WNW,290,3.0,11.0,47,0.00,,OVC021,0.00,25.00,VWS V14.01,2013-01-25 12:23:00,
2013-01-25 07:25:00,6.7,-9.2,30.21,WNW,290,3.0,11.0,47,0.00,,OVC021,0.00,25.00,VWS V14.01,2013-01-25 12:25:00,
2013-01-25 07:28:00,6.8,-8.7,30.21,West,273,3.0,9.0,48,0.00,,OVC021,0.00,44.00,VWS V14.01,2013-01-25 12:28:00,
2013-01-25 07:30:00,6.8,-8.7,30.21,West,273,3.0,9.0,48,0.00,,OVC021,0.00,44.00,VWS V14.01,2013-01-25 12:30:00,
2013-01-25 07:33:00,7.1,-8.4,30.22,WNW,290,9.0,9.0,48,0.00,,OVC021,0.00,63.00,VWS V14.01,2013-01-25 12:33:00,
2013-01-25 07:35:00,7.1,-8.4,30.22,WNW,290,9.0,9.0,48,0.00,,OVC021,0.00,63.00,VWS V14.01,2013-01-25 12:35:00,
2013-01-25 07:38:00,7.4,-8.6,30.22,WNW,290,8.0,10.0,47,0.00,,OVC021,0.00,77.00,VWS V14.01,2013-01-25 12:38:00,
2013-01-25 07:40:00,7.4,-8.6,30.22,WNW,290,8.0,10.0,47,0.00,,OVC021,0.00,77.00,VWS V14.01,2013-01-25 12:40:00,
2013-01-25 07:43:00,7.6,-8.4,30.21,West,271,4.0,10.0,47,0.00,,OVC021,0.00,54.00,VWS V14.01,2013-01-25 12:43:00,
2013-01-25 07:45:00,7.6,-8.4,30.21,West,271,4.0,10.0,47,0.00,,OVC021,0.00,54.00,VWS V14.01,2013-01-25 12:45:00,
2013-01-25 07:48:00,7.6,-8.9,30.21,West,274,6.0,11.0,46,0.00,,OVC021,0.00,65.00,VWS V14.01,2013-01-25 12:48:00,
2013-01-25 07:50:00,7.6,-8.9,30.21,West,274,6.0,11.0,46,0.00,,OVC021,0.00,65.00,VWS V14.01,2013-01-25 12:50:00,
2013-01-25 07:53:00,7.7,-8.3,30.22,WNW,292,3.0,12.0,47,0.00,,OVC021,0.00,70.00,VWS V14.01,2013-01-25 12:53:00,
2013-01-25 07:55:00,7.7,-8.3,30.22,WNW,292,3.0,12.0,47,0.00,,OVC021,0.00,70.00,VWS V14.01,2013-01-25 12:55:00,
2013-01-25 07:58:00,8.0,-8.5,30.22,WNW,291,6.0,11.0,46,0.00,,OVC021,0.00,104.00,VWS V14.01,2013-01-25 12:58:00,
2013-01-25 08:00:00,8.0,-8.5,30.22,WNW,291,6.0,11.0,46,0.00,,OVC021,0.00,104.00,VWS V14.01,2013-01-25 13:00:00,
2013-01-25 08:03:00,8.2,-8.3,30.22,West,281,6.0,11.0,46,0.00,,OVC021,0.00,121.00,VWS V14.01,2013-01-25 13:03:00,
2013-01-25 08:05:00,8.2,-8.3,30.22,West,281,6.0,11.0,46,0.00,,OVC021,0.00,121.00,VWS V14.01,2013-01-25 13:05:00,
2013-01-25 08:08:00,8.4,-8.1,30.22,WNW,282,4.0,9.0,46,0.00,,OVC021,0.00,132.00,VWS V14.01,2013-01-25 13:08:00,
2013-01-25 08:10:00,8.4,-8.1,30.22,WNW,282,4.0,9.0,46,0.00,,OVC021,0.00,132.00,VWS V14.01,2013-01-25 13:10:00,
2013-01-25 08:13:00,8.6,-8.4,30.23,WNW,284,7.0,12.0,45,0.00,,OVC021,0.00,141.00,VWS V14.01,2013-01-25 13:13:00,
2013-01-25 08:15:00,8.6,-8.4,30.23,WNW,284,7.0,12.0,45,0.00,,OVC021,0.00,141.00,VWS V14.01,2013-01-25 13:15:00,
2013-01-25 08:18:00,8.8,-8.2,30.23,NW,313,7.0,10.0,45,0.00,,OVC021,0.00,158.00,VWS V14.01,2013-01-25 13:18:00,
2013-01-25 08:20:00,8.8,-8.2,30.23,NW,313,7.0,10.0,45,0.00,,OVC021,0.00,158.00,VWS V14.01,2013-01-25 13:20:00,
2013-01-25 08:23:00,8.9,-8.1,30.23,WNW,284,6.0,11.0,45,0.00,,OVC021,0.00,134.00,VWS V14.01,2013-01-25 13:23:00,
2013-01-25 08:25:00,8.9,-8.1,30.23,WNW,284,6.0,11.0,45,0.00,,OVC021,0.00,134.00,VWS V14.01,2013-01-25 13:25:00,
2013-01-25 08:28:00,9.1,-7.9,30.23,NW,323,5.0,10.0,45,0.00,,OVC021,0.00,137.00,VWS V14.01,2013-01-25 13:28:00,
2013-01-25 08:30:00,9.1,-7.9,30.23,NW,323,5.0,10.0,45,0.00,,OVC021,0.00,137.00,VWS V14.01,2013-01-25 13:30:00,
2013-01-25 08:33:00,9.2,-8.3,30.23,NW,324,3.0,12.0,44,0.00,,OVC021,0.00,171.00,VWS V14.01,2013-01-25 13:33:00,
2013-01-25 08:35:00,9.2,-8.3,30.23,NW,324,3.0,12.0,44,0.00,,OVC021,0.00,171.00,VWS V14.01,2013-01-25 13:35:00,
2013-01-25 08:38:00,9.5,-8.0,30.22,NW,325,4.0,9.0,44,0.00,,OVC021,0.00,223.00,VWS V14.01,2013-01-25 13:38:00,
2013-01-25 08:40:00,9.5,-8.0,30.22,NW,325,4.0,9.0,44,0.00,,OVC021,0.00,223.00,VWS V14.01,2013-01-25 13:40:00,
2013-01-25 08:43:00,9.9,-9.1,30.23,NW,313,5.0,14.0,41,0.00,,OVC021,0.00,239.00,VWS V14.01,2013-01-25 13:43:00,
2013-01-25 08:45:00,9.9,-9.1,30.23,NW,313,5.0,14.0,41,0.00,,OVC021,0.00,239.00,VWS V14.01,2013-01-25 13:45:00,
2013-01-25 08:48:00,10.2,-9.3,30.23,NW,315,8.0,14.0,40,0.00,,OVC021,0.00,253.00,VWS V14.01,2013-01-25 13:48:00,
2013-01-25 08:50:00,10.2,-9.3,30.23,NW,315,8.0,14.0,40,0.00,,OVC021,0.00,253.00,VWS V14.01,2013-01-25 13:50:00,
2013-01-25 08:53:00,10.6,-8.9,30.24,NW,322,11.0,16.0,40,0.00,,OVC021,0.00,204.00,VWS V14.01,2013-01-25 13:53:00,
2013-01-25 08:55:00,10.6,-8.9,30.24,NW,322,11.0,16.0,40,0.00,,OVC021,0.00,204.00,VWS V14.01,2013-01-25 13:55:00,
2013-01-25 08:58:00,10.7,-9.4,30.23,WNW,289,7.0,14.0,39,0.00,,OVC021,0.00,225.00,VWS V14.01,2013-01-25 13:58:00,
2013-01-25 09:00:00,10.7,-9.4,30.23,WNW,289,7.0,14.0,39,0.00,,OVC021,0.00,225.00,VWS V14.01,2013-01-25 14:00:00,
2013-01-25 09:03:00,10.9,-8.7,30.23,WNW,302,6.0,6.0,40,0.00,,OVC021,0.00,218.00,VWS V14.01,2013-01-25 14:03:00,
2013-01-25 09:05:00,10.9,-8.7,30.23,NW,320,4.0,14.0,40,0.00,,OVC021,0.00,218.00,VWS V14.01,2013-01-25 14:05:00,
2013-01-25 09:08:00,11.0,-9.6,30.23,WNW,298,8.0,11.0,38,0.00,,OVC021,0.00,267.00,VWS V14.01,2013-01-25 14:08:00,
2013-01-25 09:10:00,11.0,-9.6,30.23,NW,315,11.0,16.0,38,0.00,,OVC021,0.00,267.00,VWS V14.01,2013-01-25 14:10:00,
2013-01-25 09:13:00,11.2,-8.9,30.22,NW,305,10.0,11.0,39,0.00,,OVC021,0.00,264.00,VWS V14.01,2013-01-25 14:13:00,
2013-01-25 09:15:00,11.2,-8.9,30.22,WNW,286,11.0,17.0,39,0.00,,OVC021,0.00,264.00,VWS V14.01,2013-01-25 14:15:00,
2013-01-25 09:18:00,11.4,-9.3,30.23,WNW,290,7.0,14.0,38,0.00,,OVC021,0.00,269.00,VWS V14.01,2013-01-25 14:18:00,
2013-01-25 09:20:00,11.4,-9.3,30.22,WNW,295,14.0,14.0,38,0.00,,OVC021,0.00,269.00,VWS V14.01,2013-01-25 14:20:00,
2013-01-25 09:23:00,11.5,-9.7,30.22,WNW,288,12.0,16.0,37,0.00,,OVC021,0.00,295.00,VWS V14.01,2013-01-25 14:23:00,
2013-01-25 09:25:00,11.5,-9.7,30.22,West,281,12.0,18.0,37,0.00,,OVC021,0.00,295.00,VWS V14.01,2013-01-25 14:25:00,
2013-01-25 09:29:00,11.6,-9.6,30.23,WNW,302,16.0,17.0,37,0.00,,OVC021,0.00,345.00,VWS V14.01,2013-01-25 14:29:00,
2013-01-25 09:30:00,11.6,-9.6,30.22,WNW,292,10.0,16.0,37,0.00,,OVC021,0.00,348.00,VWS V14.01,2013-01-25 14:30:00,
2013-01-25 09:34:00,12.1,-8.6,30.23,NNW,334,9.0,10.0,38,0.00,,OVC021,0.00,366.00,VWS V14.01,2013-01-25 14:34:00,
2013-01-25 09:35:00,12.0,-8.7,30.23,NW,305,7.0,17.0,38,0.00,,OVC021,0.00,362.00,VWS V14.01,2013-01-25 14:35:00,
2013-01-25 09:39:00,12.6,-9.3,30.23,NW,307,11.0,13.0,36,0.00,,OVC021,0.00,362.00,VWS V14.01,2013-01-25 14:39:00,
2013-01-25 09:40:00,12.6,-8.7,30.23,West,277,10.0,17.0,37,0.00,,OVC021,0.00,360.00,VWS V14.01,2013-01-25 14:40:00,
2013-01-25 09:44:00,12.8,-9.1,30.23,WNW,292,14.0,14.0,36,0.00,,OVC021,0.00,359.00,VWS V14.01,2013-01-25 14:44:00,
2013-01-25 09:45:00,12.7,-9.2,30.23,NW,313,9.0,20.0,36,0.00,,OVC021,0.00,360.00,VWS V14.01,2013-01-25 14:45:00,
2013-01-25 09:49:00,13.2,-8.7,30.23,WNW,302,4.0,8.0,36,0.00,,OVC021,0.00,376.00,VWS V14.01,2013-01-25 14:49:00,
2013-01-25 09:50:00,13.1,-8.8,30.23,WNW,300,7.0,14.0,36,0.00,,OVC021,0.00,373.00,VWS V14.01,2013-01-25 14:50:00,
2013-01-25 09:54:00,13.5,-8.5,30.23,NW,319,5.0,14.0,36,0.00,,OVC021,0.00,364.00,VWS V14.01,2013-01-25 14:54:00,
2013-01-25 09:55:00,13.4,-8.6,30.23,NW,315,11.0,15.0,36,0.00,,OVC021,0.00,369.00,VWS V14.01,2013-01-25 14:55:00,
2013-01-25 09:59:00,13.4,-9.7,30.23,NW,304,8.0,12.0,34,0.00,,OVC021,0.00,369.00,VWS V14.01,2013-01-25 14:59:00,
2013-01-25 10:00:00,13.5,-9.6,30.23,NW,319,11.0,17.0,34,0.00,,OVC021,0.00,360.00,VWS V14.01,2013-01-25 15:00:00,
2013-01-25 10:04:00,13.6,-9.0,30.23,WNW,285,6.0,9.0,35,0.00,,OVC021,0.00,308.00,VWS V14.01,2013-01-25 15:04:00,
2013-01-25 10:05:00,13.5,-9.1,30.23,WNW,297,7.0,13.0,35,0.00,,OVC021,0.00,295.00,VWS V14.01,2013-01-25 15:05:00,
2013-01-25 10:09:00,13.7,-9.5,30.23,West,267,12.0,15.0,34,0.00,,OVC021,0.00,373.00,VWS V14.01,2013-01-25 15:09:00,
2013-01-25 10:10:00,13.7,-9.5,30.23,WNW,298,15.0,16.0,34,0.00,,OVC021,0.00,348.00,VWS V14.01,2013-01-25 15:10:00,
2013-01-25 10:14:00,13.8,-10.0,30.24,WNW,298,15.0,18.0,33,0.00,,OVC021,0.00,376.00,VWS V14.01,2013-01-25 15:14:00,
2013-01-25 10:15:00,13.8,-10.0,30.24,West,272,12.0,17.0,33,0.00,,OVC021,0.00,388.00,VWS V14.01,2013-01-25 15:15:00,
2013-01-25 10:19:00,14.0,-9.2,30.24,NW,318,5.0,10.0,34,0.00,,OVC021,0.00,352.00,VWS V14.01,2013-01-25 15:19:00,
2013-01-25 10:20:00,13.9,-9.3,30.23,NW,312,5.0,18.0,34,0.00,,OVC021,0.00,353.00,VWS V14.01,2013-01-25 15:20:00,
2013-01-25 10:25:00,14.1,-10.3,30.23,NW,316,11.0,16.0,32,0.00,,OVC021,0.00,387.00,VWS V14.01,2013-01-25 15:25:00,
2013-01-25 10:30:00,14.2,-9.6,30.23,NNW,335,10.0,12.0,33,0.00,,OVC021,0.00,406.00,VWS V14.01,2013-01-25 15:30:00,
2013-01-25 10:35:00,14.4,-9.4,30.23,NNW,338,6.0,7.0,33,0.00,,OVC021,0.00,387.00,VWS V14.01,2013-01-25 15:35:00,
2013-01-25 10:40:00,14.7,-9.8,30.23,WNW,303,7.0,12.0,32,0.00,,OVC021,0.00,420.00,VWS V14.01,2013-01-25 15:40:00,
2013-01-25 10:45:00,15.1,-8.8,30.23,NW,306,6.0,12.0,33,0.00,,OVC021,0.00,364.00,VWS V14.01,2013-01-25 15:45:00,
2013-01-25 10:50:00,15.1,-9.4,30.22,West,267,10.0,14.0,32,0.00,,OVC021,0.00,330.00,VWS V14.01,2013-01-25 15:50:00,
2013-01-25 10:55:00,14.9,-10.3,30.22,WNW,294,11.0,14.0,31,0.00,,OVC021,0.00,425.00,VWS V14.01,2013-01-25 15:55:00,
2013-01-25 11:00:00,15.6,-9.0,30.22,NW,319,10.0,12.0,32,0.00,,OVC021,0.00,425.00,VWS V14.01,2013-01-25 16:00:00,
2013-01-25 11:05:00,15.6,-9.6,30.22,NNW,336,6.0,13.0,31,0.00,,OVC021,0.00,432.00,VWS V14.01,2013-01-25 16:05:00,
2013-01-25 11:06:00,15.5,-9.7,30.21,WNW,291,5.0,18.0,31,0.00,,OVC021,0.00,427.00,VWS V14.01,2013-01-25 16:06:00,
2013-01-25 11:10:00,15.6,-9.0,30.21,West,263,9.0,18.0,32,0.00,,OVC021,0.00,424.00,VWS V14.01,2013-01-25 16:10:00,
2013-01-25 11:11:00,15.7,-8.9,30.21,West,269,13.0,14.0,32,0.00,,OVC021,0.00,429.00,VWS V14.01,2013-01-25 16:11:00,
2013-01-25 11:15:00,15.6,-9.6,30.21,WNW,300,8.0,17.0,31,0.00,,OVC021,0.00,441.00,VWS V14.01,2013-01-25 16:15:00,
2013-01-25 11:16:00,15.8,-8.8,30.21,WNW,285,6.0,13.0,32,0.00,,OVC021,0.00,450.00,VWS V14.01,2013-01-25 16:16:00,
2013-01-25 11:20:00,16.1,-8.6,30.21,West,273,5.0,13.0,32,0.00,,OVC021,0.00,461.00,VWS V14.01,2013-01-25 16:20:00,
2013-01-25 11:21:00,16.5,-8.9,30.21,WNW,300,12.0,15.0,31,0.00,,OVC021,0.00,455.00,VWS V14.01,2013-01-25 16:21:00,
2013-01-25 11:25:00,16.5,-9.5,30.20,West,269,5.0,15.0,30,0.00,,OVC021,0.00,475.00,VWS V14.01,2013-01-25 16:25:00,
2013-01-25 11:26:00,16.6,-8.8,30.20,WNW,296,9.0,14.0,31,0.00,,OVC021,0.00,476.00,VWS V14.01,2013-01-25 16:26:00,
2013-01-25 11:30:00,16.4,-9.6,30.20,WNW,290,9.0,14.0,30,0.00,,OVC021,0.00,455.00,VWS V14.01,2013-01-25 16:30:00,
2013-01-25 11:31:00,16.5,-8.9,30.20,West,275,4.0,13.0,31,0.00,,OVC021,0.00,459.00,VWS V14.01,2013-01-25 16:31:00,
2013-01-25 11:35:00,16.8,-7.9,30.19,WNW,287,9.0,13.0,32,0.00,,OVC021,0.00,471.00,VWS V14.01,2013-01-25 16:35:00,
2013-01-25 11:36:00,17.0,-8.4,30.19,West,264,4.0,10.0,31,0.00,,OVC021,0.00,510.00,VWS V14.01,2013-01-25 16:36:00,
2013-01-25 11:40:00,17.3,-8.1,30.19,NW,304,9.0,11.0,31,0.00,,OVC021,0.00,497.00,VWS V14.01,2013-01-25 16:40:00,
2013-01-25 11:41:00,17.4,-8.7,30.19,WNW,294,13.0,13.0,30,0.00,,OVC021,0.00,571.00,VWS V14.01,2013-01-25 16:41:00,
2013-01-25 11:45:00,17.5,-9.3,30.19,WNW,294,9.0,16.0,29,0.00,,OVC021,0.00,534.00,VWS V14.01,2013-01-25 16:45:00,
2013-01-25 11:46:00,17.9,-9.7,30.19,West,279,8.0,12.0,28,0.00,,OVC021,0.00,508.00,VWS V14.01,2013-01-25 16:46:00,
2013-01-25 11:50:00,17.9,-9.7,30.19,NW,325,8.0,12.0,28,0.00,,OVC021,0.00,519.00,VWS V14.01,2013-01-25 16:50:00,
2013-01-25 11:52:00,17.9,-9.0,30.18,West,273,11.0,14.0,29,0.00,,OVC021,0.00,506.00,VWS V14.01,2013-01-25 16:52:00,
2013-01-25 11:55:00,18.0,-8.9,30.18,West,269,7.0,14.0,29,0.00,,OVC021,0.00,531.00,VWS V14.01,2013-01-25 16:55:00,
2013-01-25 11:57:00,18.2,-9.4,30.18,NW,313,10.0,11.0,28,0.00,,OVC021,0.00,529.00,VWS V14.01,2013-01-25 16:57:00,
2013-01-25 12:00:00,18.3,-9.3,30.18,NW,304,6.0,11.0,28,0.00,,OVC021,0.00,513.00,VWS V14.01,2013-01-25 17:00:00,
2013-01-25 12:02:00,18.5,-8.4,30.18,West,271,10.0,13.0,29,0.00,,OVC021,0.00,489.00,VWS V14.01,2013-01-25 17:02:00,
2013-01-25 12:05:00,18.3,-8.6,30.18,WSW,258,5.0,13.0,29,0.00,,OVC021,0.00,441.00,VWS V14.01,2013-01-25 17:05:00,
2013-01-25 12:07:00,18.3,-7.9,30.18,West,273,10.0,10.0,30,0.00,,OVC021,0.00,466.00,VWS V14.01,2013-01-25 17:07:00,
2013-01-25 12:10:00,18.3,-7.9,30.18,WNW,282,7.0,12.0,30,0.00,,OVC021,0.00,446.00,VWS V14.01,2013-01-25 17:10:00,
2013-01-25 12:12:00,18.3,-7.9,30.18,WNW,292,8.0,11.0,30,0.00,,OVC021,0.00,468.00,VWS V14.01,2013-01-25 17:12:00,
2013-01-25 12:15:00,18.4,-7.8,30.18,West,276,7.0,12.0,30,0.00,,OVC021,0.00,490.00,VWS V14.01,2013-01-25 17:15:00,
2013-01-25 12:17:00,18.8,-7.5,30.17,West,263,8.0,12.0,30,0.00,,OVC021,0.00,376.00,VWS V14.01,2013-01-25 17:17:00,
2013-01-25 12:20:00,18.9,-8.1,30.17,WNW,292,12.0,12.0,29,0.00,,OVC021,0.00,429.00,VWS V14.01,2013-01-25 17:20:00,
2013-01-25 12:22:00,19.0,-8.0,30.17,WNW,296,10.0,13.0,29,0.00,,OVC021,0.00,494.00,VWS V14.01,2013-01-25 17:22:00,
2013-01-25 12:25:00,19.0,-8.0,30.17,West,260,12.0,14.0,29,0.00,,OVC021,0.00,497.00,VWS V14.01,2013-01-25 17:25:00,
2013-01-25 12:27:00,18.9,-8.8,30.17,West,265,7.0,15.0,28,0.00,,OVC021,0.00,427.00,VWS V14.01,2013-01-25 17:27:00,
2013-01-25 12:30:00,18.9,-8.1,30.17,WNW,296,10.0,15.0,29,0.00,,OVC021,0.00,439.00,VWS V14.01,2013-01-25 17:30:00,
2013-01-25 12:32:00,19.0,-8.7,30.17,WSW,257,8.0,15.0,28,0.00,,OVC021,0.00,478.00,VWS V14.01,2013-01-25 17:32:00,
2013-01-25 12:35:00,19.1,-8.6,30.17,West,279,9.0,15.0,28,0.00,,OVC021,0.00,489.00,VWS V14.01,2013-01-25 17:35:00,
2013-01-25 12:37:00,19.5,-8.3,30.16,West,272,6.0,12.0,28,0.00,,OVC021,0.00,464.00,VWS V14.01,2013-01-25 17:37:00,
2013-01-25 12:40:00,19.6,-7.5,30.16,WNW,287,8.0,14.0,29,0.00,,OVC021,0.00,461.00,VWS V14.01,2013-01-25 17:40:00,
2013-01-25 12:42:00,19.8,-8.8,30.16,NW,319,2.0,16.0,27,0.00,,OVC021,0.00,378.00,VWS V14.01,2013-01-25 17:42:00,
2013-01-25 12:45:00,19.8,-8.0,30.16,West,272,9.0,16.0,28,0.00,,OVC021,0.00,345.00,VWS V14.01,2013-01-25 17:45:00,
2013-01-25 12:47:00,19.8,-8.8,30.16,WNW,289,9.0,12.0,27,0.00,,OVC021,0.00,209.00,VWS V14.01,2013-01-25 17:47:00,
2013-01-25 12:50:00,19.7,-8.9,30.16,WNW,282,4.0,12.0,27,0.00,,OVC021,0.00,209.00,VWS V14.01,2013-01-25 17:50:00,
2013-01-25 12:53:00,20.0,-8.6,30.15,WNW,288,12.0,16.0,27,0.00,,OVC021,0.00,114.00,VWS V14.01,2013-01-25 17:53:00,
2013-01-25 12:55:00,20.0,-8.6,30.15,West,280,10.0,16.0,27,0.00,,OVC021,0.00,114.00,VWS V14.01,2013-01-25 17:55:00,
2013-01-25 12:58:00,20.0,-9.4,30.15,West,278,5.0,14.0,26,0.00,,OVC021,0.00,107.00,VWS V14.01,2013-01-25 17:58:00,
2013-01-25 13:00:00,20.1,-8.5,30.15,NW,311,6.0,14.0,27,0.00,,OVC021,0.00,107.00,VWS V14.01,2013-01-25 18:00:00,
2013-01-25 13:03:00,20.4,-9.0,30.15,WNW,282,3.0,12.0,26,0.00,,OVC021,0.00,125.00,VWS V14.01,2013-01-25 18:03:00,
2013-01-25 13:05:00,20.4,-9.0,30.15,West,275,6.0,12.0,26,0.00,,OVC021,0.00,125.00,VWS V14.01,2013-01-25 18:05:00,
2013-01-25 13:08:00,20.8,-7.9,30.15,West,281,7.0,12.0,27,0.00,,OVC021,0.00,125.00,VWS V14.01,2013-01-25 18:08:00,
2013-01-25 13:10:00,20.8,-7.9,30.15,WNW,290,6.0,12.0,27,0.00,,OVC021,0.00,125.00,VWS V14.01,2013-01-25 18:10:00,
2013-01-25 13:13:00,21.1,-6.9,30.15,West,281,7.0,13.0,28,0.00,,OVC021,0.00,123.00,VWS V14.01,2013-01-25 18:13:00,
2013-01-25 13:15:00,21.1,-6.9,30.15,West,278,11.0,13.0,28,0.00,,OVC021,0.00,123.00,VWS V14.01,2013-01-25 18:15:00,
2013-01-25 13:18:00,21.2,-7.6,30.14,West,262,6.0,12.0,27,0.00,,OVC021,0.00,127.00,VWS V14.01,2013-01-25 18:18:00,
2013-01-25 13:20:00,21.2,-7.6,30.14,WSW,250,5.0,12.0,27,0.00,,OVC021,0.00,127.00,VWS V14.01,2013-01-25 18:20:00,
2013-01-25 13:23:00,21.0,-8.5,30.14,West,274,2.0,13.0,26,0.00,,OVC021,0.00,137.00,VWS V14.01,2013-01-25 18:23:00,
2013-01-25 13:25:00,21.0,-8.5,30.14,West,274,2.0,13.0,26,0.00,,OVC021,0.00,137.00,VWS V14.01,2013-01-25 18:25:00,
2013-01-25 13:28:00,20.8,-7.9,30.14,WSW,257,8.0,14.0,27,0.00,,OVC021,0.00,148.00,VWS V14.01,2013-01-25 18:28:00,
2013-01-25 13:30:00,20.8,-7.9,30.14,WSW,257,8.0,14.0,27,0.00,,OVC021,0.00,148.00,VWS V14.01,2013-01-25 18:30:00,
2013-01-25 13:33:00,20.6,-8.1,30.13,WSW,238,9.0,11.0,27,0.00,,OVC021,0.00,156.00,VWS V14.01,2013-01-25 18:33:00,
2013-01-25 13:35:00,20.6,-8.1,30.13,WSW,238,9.0,11.0,27,0.00,,OVC021,0.00,156.00,VWS V14.01,2013-01-25 18:35:00,
2013-01-25 13:38:00,20.7,-8.8,30.13,WNW,300,5.0,8.0,26,0.00,,OVC021,0.00,163.00,VWS V14.01,2013-01-25 18:38:00,
2013-01-25 13:40:00,20.7,-8.0,30.13,WNW,288,8.0,11.0,27,0.00,,OVC021,0.00,163.00,VWS V14.01,2013-01-25 18:40:00,
2013-01-25 13:44:00,20.7,-8.0,30.12,WSW,243,6.0,10.0,27,0.00,,OVC021,0.00,163.00,VWS V14.01,2013-01-25 18:44:00,
2013-01-25 13:45:00,20.7,-8.0,30.12,WSW,253,7.0,13.0,27,0.00,,OVC021,0.00,163.00,VWS V14.01,2013-01-25 18:45:00,
2013-01-25 13:49:00,20.8,-7.9,30.12,West,264,5.0,7.0,27,0.00,,OVC021,0.00,162.00,VWS V14.01,2013-01-25 18:49:00,
2013-01-25 13:50:00,20.7,-8.0,30.12,WNW,288,5.0,11.0,27,0.00,,OVC021,0.00,162.00,VWS V14.01,2013-01-25 18:50:00,
2013-01-25 13:54:00,21.0,-7.7,30.12,West,263,3.0,6.0,27,0.00,,OVC021,0.00,155.00,VWS V14.01,2013-01-25 18:54:00,
2013-01-25 13:55:00,21.0,-7.7,30.12,NW,316,6.0,11.0,27,0.00,,OVC021,0.00,155.00,VWS V14.01,2013-01-25 18:55:00,
2013-01-25 13:59:00,21.2,-7.6,30.11,NW,321,5.0,10.0,27,0.00,,OVC021,0.00,148.00,VWS V14.01,2013-01-25 18:59:00,
2013-01-25 14:00:00,21.2,-7.6,30.11,West,277,4.0,12.0,27,0.00,,OVC021,0.00,149.00,VWS V14.01,2013-01-25 19:00:00,
2013-01-25 14:04:00,21.3,-8.2,30.11,WNW,284,10.0,11.0,26,0.00,,OVC021,0.00,156.00,VWS V14.01,2013-01-25 19:04:00,
2013-01-25 14:05:00,21.3,-8.2,30.11,West,280,8.0,11.0,26,0.00,,OVC021,0.00,153.00,VWS V14.01,2013-01-25 19:05:00,
2013-01-25 14:09:00,21.4,-8.1,30.11,WNW,302,4.0,10.0,26,0.00,,OVC021,0.00,169.00,VWS V14.01,2013-01-25 19:09:00,
2013-01-25 14:10:00,21.3,-7.5,30.11,NW,311,7.0,13.0,27,0.00,,OVC021,0.00,167.00,VWS V14.01,2013-01-25 19:10:00,
2013-01-25 14:14:00,21.3,-8.2,30.11,West,275,6.0,11.0,26,0.00,,OVC021,0.00,172.00,VWS V14.01,2013-01-25 19:14:00,
2013-01-25 14:15:00,21.3,-8.2,30.11,West,265,9.0,10.0,26,0.00,,OVC021,0.00,172.00,VWS V14.01,2013-01-25 19:15:00,
2013-01-25 14:19:00,21.6,-8.0,30.11,SW,230,2.0,5.0,26,0.00,,OVC021,0.00,162.00,VWS V14.01,2013-01-25 19:19:00,
2013-01-25 14:20:00,21.5,-8.1,30.11,WSW,241,5.0,11.0,26,0.00,,OVC021,0.00,165.00,VWS V14.01,2013-01-25 19:20:00,
2013-01-25 14:24:00,21.9,-8.5,30.10,NNW,332,3.0,8.0,25,0.00,,OVC021,0.00,153.00,VWS V14.01,2013-01-25 19:24:00,
2013-01-25 14:25:00,21.9,-7.7,30.11,WNW,302,5.0,9.0,26,0.00,,OVC021,0.00,155.00,VWS V14.01,2013-01-25 19:25:00,
2013-01-25 14:30:00,21.8,-8.6,30.10,WSW,254,4.0,9.0,25,0.00,,OVC021,0.00,141.00,VWS V14.01,2013-01-25 19:30:00,
2013-01-25 14:35:00,21.9,-8.5,30.10,West,259,5.0,8.0,25,0.00,,OVC021,0.00,144.00,VWS V14.01,2013-01-25 19:35:00,
2013-01-25 14:40:00,22.1,-7.5,30.10,WNW,300,0.0,4.0,26,0.00,,OVC021,0.00,155.00,VWS V14.01,2013-01-25 19:40:00,
2013-01-25 14:45:00,21.9,-8.5,30.10,WNW,286,7.0,11.0,25,0.00,,OVC021,0.00,151.00,VWS V14.01,2013-01-25 19:45:00,
2013-01-25 14:50:00,21.6,-8.0,30.10,NNW,348,3.0,4.0,26,0.00,,OVC021,0.00,130.00,VWS V14.01,2013-01-25 19:50:00,
2013-01-25 14:55:00,21.8,-7.8,30.10,West,278,4.0,7.0,26,0.00,,OVC021,0.00,107.00,VWS V14.01,2013-01-25 19:55:00,
2013-01-25 15:00:00,21.6,-8.0,30.10,NW,310,1.0,9.0,26,0.00,,OVC021,0.00,107.00,VWS V14.01,2013-01-25 20:00:00,
2013-01-25 15:05:00,21.4,-8.1,30.10,West,265,4.0,10.0,26,0.00,,OVC021,0.00,91.00,VWS V14.01,2013-01-25 20:05:00,
2013-01-25 15:10:00,21.3,-7.5,30.09,West,269,4.0,6.0,27,0.00,,OVC021,0.00,97.00,VWS V14.01,2013-01-25 20:10:00,
2013-01-25 15:15:00,21.3,-8.2,30.09,West,281,5.0,9.0,26,0.00,,OVC021,0.00,93.00,VWS V14.01,2013-01-25 20:15:00,
2013-01-25 15:20:00,21.1,-8.4,30.09,West,276,6.0,9.0,26,0.00,,OVC021,0.00,102.00,VWS V14.01,2013-01-25 20:20:00,
2013-01-25 15:25:00,21.1,-8.4,30.09,WSW,251,5.0,9.0,26,0.00,,OVC021,0.00,107.00,VWS V14.01,2013-01-25 20:25:00,
2013-01-25 15:26:00,21.2,-8.3,30.09,WSW,244,2.0,8.0,26,0.00,,OVC021,0.00,105.00,VWS V14.01,2013-01-25 20:26:00,
2013-01-25 15:30:00,21.3,-8.2,30.09,West,281,4.0,8.0,26,0.00,,OVC021,0.00,95.00,VWS V14.01,2013-01-25 20:30:00,
2013-01-25 15:31:00,21.5,-7.3,30.09,West,277,4.0,8.0,27,0.00,,OVC021,0.00,88.00,VWS V14.01,2013-01-25 20:31:00,
2013-01-25 15:35:00,21.5,-8.1,30.09,West,281,8.0,10.0,26,0.00,,OVC021,0.00,83.00,VWS V14.01,2013-01-25 20:35:00,
2013-01-25 15:36:00,21.5,-8.1,30.09,WNW,294,4.0,8.0,26,0.00,,OVC021,0.00,84.00,VWS V14.01,2013-01-25 20:36:00,
2013-01-25 15:40:00,21.5,-8.1,30.09,WNW,290,5.0,11.0,26,0.00,,OVC021,0.00,88.00,VWS V14.01,2013-01-25 20:40:00,
2013-01-25 15:41:00,21.5,-8.1,30.09,WNW,301,1.0,6.0,26,0.00,,OVC021,0.00,88.00,VWS V14.01,2013-01-25 20:41:00,
2013-01-25 15:45:00,21.5,-8.1,30.09,West,261,5.0,8.0,26,0.00,,OVC021,0.00,83.00,VWS V14.01,2013-01-25 20:45:00,
2013-01-25 15:46:00,21.4,-8.9,30.09,WNW,293,8.0,11.0,25,0.00,,OVC021,0.00,74.00,VWS V14.01,2013-01-25 20:46:00,
2013-01-25 15:50:00,21.3,-8.2,30.09,West,269,5.0,11.0,26,0.00,,OVC021,0.00,67.00,VWS V14.01,2013-01-25 20:50:00,
2013-01-25 15:51:00,21.3,-8.2,30.10,WNW,294,6.0,8.0,26,0.00,,OVC021,0.00,53.00,VWS V14.01,2013-01-25 20:51:00,
2013-01-25 15:55:00,21.3,-8.2,30.10,WNW,288,8.0,9.0,26,0.00,,OVC021,0.00,49.00,VWS V14.01,2013-01-25 20:55:00,
2013-01-25 15:56:00,21.2,-8.3,30.10,West,272,9.0,10.0,26,0.00,,OVC021,0.00,46.00,VWS V14.01,2013-01-25 20:56:00,
2013-01-25 16:00:00,21.1,-7.6,30.10,West,263,5.0,10.0,27,0.00,,OVC021,0.00,40.00,VWS V14.01,2013-01-25 21:00:00,
2013-01-25 16:01:00,21.1,-7.6,30.09,West,269,3.0,7.0,27,0.00,,OVC021,0.00,37.00,VWS V14.01,2013-01-25 21:01:00,
2013-01-25 16:05:00,21.1,-6.9,30.09,West,278,3.0,7.0,28,0.00,,OVC021,0.00,33.00,VWS V14.01,2013-01-25 21:05:00,
2013-01-25 16:06:00,21.1,-6.9,30.09,WSW,247,4.0,8.0,28,0.00,,OVC021,0.00,32.00,VWS V14.01,2013-01-25 21:06:00,
2013-01-25 16:10:00,21.1,-6.9,30.09,WSW,252,9.0,11.0,28,0.00,,OVC021,0.00,30.00,VWS V14.01,2013-01-25 21:10:00,
2013-01-25 16:11:00,21.0,-7.7,30.09,WNW,284,7.0,10.0,27,0.00,,OVC021,0.00,28.00,VWS V14.01,2013-01-25 21:11:00,
2013-01-25 16:15:00,21.0,-7.7,30.09,WSW,250,6.0,10.0,27,0.00,,OVC021,0.00,26.00,VWS V14.01,2013-01-25 21:15:00,
2013-01-25 16:16:00,20.9,-7.8,30.09,WSW,258,6.0,12.0,27,0.00,,OVC021,0.00,23.00,VWS V14.01,2013-01-25 21:16:00,
2013-01-25 16:20:00,20.9,-7.8,30.09,West,266,9.0,12.0,27,0.00,,OVC021,0.00,23.00,VWS V14.01,2013-01-25 21:20:00,
2013-01-25 16:21:00,20.8,-7.9,30.09,West,259,3.0,11.0,27,0.00,,OVC021,0.00,21.00,VWS V14.01,2013-01-25 21:21:00,
2013-01-25 16:25:00,20.8,-7.2,30.09,WNW,289,2.0,11.0,28,0.00,,OVC021,0.00,19.00,VWS V14.01,2013-01-25 21:25:00,
2013-01-25 16:26:00,20.7,-7.2,30.09,West,274,5.0,7.0,28,0.00,,OVC021,0.00,18.00,VWS V14.01,2013-01-25 21:26:00,
2013-01-25 16:30:00,20.7,-7.2,30.09,West,279,7.0,7.0,28,0.00,,OVC021,0.00,16.00,VWS V14.01,2013-01-25 21:30:00,
2013-01-25 16:32:00,20.7,-7.2,30.09,WNW,288,3.0,8.0,28,0.00,,OVC021,0.00,12.00,VWS V14.01,2013-01-25 21:32:00,
2013-01-25 16:35:00,20.6,-7.3,30.09,West,268,6.0,8.0,28,0.00,,OVC021,0.00,11.00,VWS V14.01,2013-01-25 21:35:00,
2013-01-25 16:37:00,20.6,-7.3,30.09,WNW,298,6.0,6.0,28,0.00,,OVC021,0.00,7.00,VWS V14.01,2013-01-25 21:37:00,
2013-01-25 16:40:00,20.6,-7.3,30.09,NW,307,4.0,6.0,28,0.00,,OVC021,0.00,7.00,VWS V14.01,2013-01-25 21:40:00,
2013-01-25 16:42:00,20.6,-7.3,30.09,WNW,298,2.0,4.0,28,0.00,,OVC021,0.00,5.00,VWS V14.01,2013-01-25 21:42:00,
2013-01-25 16:45:00,20.6,-7.3,30.09,West,265,5.0,6.0,28,0.00,,OVC021,0.00,0.00,VWS V14.01,2013-01-25 21:45:00,
2013-01-25 16:47:00,20.5,-7.4,30.09,West,275,2.0,6.0,28,0.00,,OVC021,0.00,0.00,VWS V14.01,2013-01-25 21:47:00,
2013-01-25 16:50:00,20.5,-7.4,30.09,West,275,4.0,6.0,28,0.00,,OVC021,0.00,0.00,VWS V14.01,2013-01-25 21:50:00,
2013-01-25 16:52:00,20.5,-6.7,30.09,West,275,1.0,4.0,29,0.00,,OVC021,0.00,0.00,VWS V14.01,2013-01-25 21:52:00,
2013-01-25 16:55:00,20.4,-6.8,30.09,West,275,3.0,4.0,29,0.00,,OVC021,0.00,0.00,VWS V14.01,2013-01-25 21:55:00,
2013-01-25 16:57:00,20.4,-6.1,30.09,West,275,5.0,5.0,30,0.00,,OVC021,0.00,0.00,VWS V14.01,2013-01-25 21:57:00,
2013-01-25 17:00:00,20.4,-6.8,30.09,West,270,3.0,5.0,29,0.00,,OVC021,0.00,0.00,VWS V14.01,2013-01-25 22:00:00,
2013-01-25 17:02:00,20.3,-6.2,30.09,WSW,252,4.0,6.0,30,0.00,,OVC021,0.00,0.00,VWS V14.01,2013-01-25 22:02:00,
2013-01-25 17:05:00,20.4,-6.8,30.09,WSW,255,3.0,6.0,29,0.00,,OVC021,0.00,0.00,VWS V14.01,2013-01-25 22:05:00,
2013-01-25 17:07:00,20.3,-6.2,30.10,West,260,2.0,6.0,30,0.00,,OVC021,0.00,0.00,VWS V14.01,2013-01-25 22:07:00,
2013-01-25 17:10:00,20.3,-6.2,30.10,West,267,6.0,7.0,30,0.00,,OVC021,0.00,0.00,VWS V14.01,2013-01-25 22:10:00,
2013-01-25 17:12:00,20.3,-6.2,30.09,WSW,257,3.0,6.0,30,0.00,,OVC021,0.00,0.00,VWS V14.01,2013-01-25 22:12:00,
2013-01-25 17:15:00,20.3,-6.2,30.09,WSW,254,3.0,6.0,30,0.00,,OVC021,0.00,0.00,VWS V14.01,2013-01-25 22:15:00,
2013-01-25 17:17:00,20.2,-6.3,30.09,West,279,3.0,6.0,30,0.00,,OVC021,0.00,0.00,VWS V14.01,2013-01-25 22:17:00,
2013-01-25 17:20:00,20.2,-6.3,30.09,West,270,3.0,6.0,30,0.00,,OVC021,0.00,0.00,VWS V14.01,2013-01-25 22:20:00,
2013-01-25 17:22:00,20.1,-6.3,30.09,West,272,4.0,8.0,30,0.00,,OVC021,0.00,0.00,VWS V14.01,2013-01-25 22:22:00,
2013-01-25 17:25:00,20.1,-6.3,30.09,WNW,290,3.0,8.0,30,0.00,,OVC021,0.00,0.00,VWS V14.01,2013-01-25 22:25:00,
2013-01-25 17:27:00,20.1,-6.3,30.09,WNW,284,3.0,8.0,30,0.00,,OVC021,0.00,0.00,VWS V14.01,2013-01-25 22:27:00,
2013-01-25 17:30:00,20.1,-6.3,30.09,WNW,283,4.0,8.0,30,0.00,,OVC021,0.00,0.00,VWS V14.01,2013-01-25 22:30:00,
2013-01-25 17:33:00,20.1,-7.1,30.09,NW,304,5.0,9.0,29,0.00,,OVC021,0.00,0.00,VWS V14.01,2013-01-25 22:33:00,
2013-01-25 17:35:00,20.1,-7.1,30.09,NW,316,2.0,9.0,29,0.00,,OVC021,0.00,0.00,VWS V14.01,2013-01-25 22:35:00,
2013-01-25 17:38:00,20.1,-6.3,30.09,West,278,3.0,8.0,30,0.00,,OVC021,0.00,0.00,VWS V14.01,2013-01-25 22:38:00,
2013-01-25 17:40:00,20.1,-6.3,30.09,West,259,2.0,8.0,30,0.00,,OVC021,0.00,0.00,VWS V14.01,2013-01-25 22:40:00,
2013-01-25 17:43:00,20.1,-6.3,30.09,WNW,303,3.0,7.0,30,0.00,,OVC021,0.00,0.00,VWS V14.01,2013-01-25 22:43:00,
2013-01-25 17:45:00,20.1,-6.3,30.09,WNW,288,6.0,7.0,30,0.00,,OVC021,0.00,0.00,VWS V14.01,2013-01-25 22:45:00,
2013-01-25 17:48:00,20.0,-6.4,30.08,NW,305,4.0,8.0,30,0.00,,OVC021,0.00,0.00,VWS V14.01,2013-01-25 22:48:00,
2013-01-25 17:50:00,20.0,-6.4,30.08,WNW,298,4.0,8.0,30,0.00,,OVC021,0.00,0.00,VWS V14.01,2013-01-25 22:50:00,
2013-01-25 17:53:00,20.0,-6.4,30.08,WNW,294,4.0,10.0,30,0.00,,OVC021,0.00,0.00,VWS V14.01,2013-01-25 22:53:00,
2013-01-25 17:55:00,20.0,-6.4,30.08,WNW,294,3.0,10.0,30,0.00,,OVC021,0.00,0.00,VWS V14.01,2013-01-25 22:55:00,
2013-01-25 17:58:00,20.0,-6.4,30.08,West,277,4.0,5.0,30,0.00,,OVC021,0.00,0.00,VWS V14.01,2013-01-25 22:58:00,
2013-01-25 18:00:00,20.0,-6.4,30.08,West,277,3.0,5.0,30,0.00,,OVC021,0.00,0.00,VWS V14.01,2013-01-25 23:00:00,
2013-01-25 18:03:00,19.9,-6.5,30.08,WNW,300,1.0,5.0,30,0.00,,OVC021,0.00,0.00,VWS V14.01,2013-01-25 23:03:00,
2013-01-25 18:05:00,19.9,-6.5,30.08,WNW,300,2.0,5.0,30,0.00,,OVC021,0.00,0.00,VWS V14.01,2013-01-25 23:05:00,
2013-01-25 18:08:00,19.9,-5.8,30.08,WNW,288,4.0,5.0,31,0.00,,OVC021,0.00,0.00,VWS V14.01,2013-01-25 23:08:00,
2013-01-25 18:10:00,19.9,-5.8,30.08,WNW,288,4.0,5.0,31,0.00,,OVC021,0.00,0.00,VWS V14.01,2013-01-25 23:10:00,
2013-01-25 18:13:00,19.9,-5.8,30.08,West,279,4.0,7.0,31,0.00,,OVC021,0.00,0.00,VWS V14.01,2013-01-25 23:13:00,
2013-01-25 18:15:00,19.9,-5.8,30.08,West,279,4.0,7.0,31,0.00,,OVC021,0.00,0.00,VWS V14.01,2013-01-25 23:15:00,
2013-01-25 18:18:00,19.8,-5.9,30.07,WNW,294,4.0,5.0,31,0.00,,OVC021,0.00,0.00,VWS V14.01,2013-01-25 23:18:00,
2013-01-25 18:20:00,19.8,-5.9,30.07,WNW,294,4.0,5.0,31,0.00,,OVC021,0.00,0.00,VWS V14.01,2013-01-25 23:20:00,
2013-01-25 18:23:00,19.7,-6.7,30.07,WNW,288,3.0,6.0,30,0.00,,OVC021,0.00,0.00,VWS V14.01,2013-01-25 23:23:00,
2013-01-25 18:25:00,19.7,-6.7,30.07,WNW,288,3.0,6.0,30,0.00,,OVC021,0.00,0.00,VWS V14.01,2013-01-25 23:25:00,
2013-01-25 18:28:00,19.7,-6.0,30.07,NW,306,2.0,6.0,31,0.00,,OVC021,0.00,0.00,VWS V14.01,2013-01-25 23:28:00,
2013-01-25 18:30:00,19.7,-6.0,30.07,NW,306,2.0,6.0,31,0.00,,OVC021,0.00,0.00,VWS V14.01,2013-01-25 23:30:00,
2013-01-25 18:33:00,19.7,-6.0,30.07,WNW,285,6.0,6.0,31,0.00,,OVC021,0.00,0.00,VWS V14.01,2013-01-25 23:33:00,
2013-01-25 18:35:00,19.7,-6.0,30.07,WNW,285,6.0,6.0,31,0.00,,OVC021,0.00,0.00,VWS V14.01,2013-01-25 23:35:00,
2013-01-25 18:38:00,19.7,-6.7,30.07,WNW,302,3.0,4.0,30,0.00,,OVC021,0.00,0.00,VWS V14.01,2013-01-25 23:38:00,
2013-01-25 18:40:00,19.7,-6.7,30.07,WNW,302,4.0,8.0,30,0.00,,OVC021,0.00,0.00,VWS V14.01,2013-01-25 23:40:00,
2013-01-25 18:43:00,19.7,-6.0,30.07,WNW,292,1.0,2.0,31,0.00,,OVC021,0.00,0.00,VWS V14.01,2013-01-25 23:43:00,
2013-01-25 18:45:00,19.7,-6.0,30.07,WNW,292,2.0,6.0,31,0.00,,OVC021,0.00,0.00,VWS V14.01,2013-01-25 23:45:00,
2013-01-25 18:48:00,19.7,-6.7,30.07,WNW,290,5.0,5.0,30,0.00,,OVC021,0.00,0.00,VWS V14.01,2013-01-25 23:48:00,
2013-01-25 18:50:00,19.7,-6.7,30.07,WNW,295,4.0,8.0,30,0.00,,OVC021,0.00,0.00,VWS V14.01,2013-01-25 23:50:00,
2013-01-25 18:53:00,19.7,-7.4,30.07,WNW,300,4.0,5.0,29,0.00,,OVC021,0.00,0.00,VWS V14.01,2013-01-25 23:53:00,
2013-01-25 18:55:00,19.7,-7.4,30.07,West,279,4.0,9.0,29,0.00,,OVC021,0.00,0.00,VWS V14.01,2013-01-25 23:55:00,
2013-01-25 18:58:00,19.7,-6.7,30.07,West,275,2.0,3.0,30,0.00,,OVC021,0.00,0.00,VWS V14.01,2013-01-25 23:58:00,
2013-01-25 19:00:00,19.7,-7.4,30.07,West,275,2.0,8.0,29,0.00,,OVC021,0.00,0.00,VWS V14.01,2013-01-26 00:00:00,
2013-01-25 19:05:00,19.6,-7.5,30.07,NW,309,5.0,9.0,29,0.00,,OVC021,0.00,0.00,VWS V14.01,2013-01-26 00:05:00,
2013-01-25 19:10:00,19.6,-7.5,30.06,NW,307,5.0,8.0,29,0.00,,OVC021,0.00,0.00,VWS V14.01,2013-01-26 00:10:00,
2013-01-25 19:15:00,19.6,-7.5,30.06,WNW,289,6.0,8.0,29,0.00,,OVC021,0.00,0.00,VWS V14.01,2013-01-26 00:15:00,
2013-01-25 19:20:00,19.6,-6.8,30.06,West,269,3.0,6.0,30,0.00,,OVC021,0.00,0.00,VWS V14.01,2013-01-26 00:20:00,
2013-01-25 19:25:00,19.6,-6.8,30.06,West,275,3.0,7.0,30,0.00,,OVC021,0.00,0.00,VWS V14.01,2013-01-26 00:25:00,
2013-01-25 19:30:00,19.5,-7.6,30.06,West,280,6.0,7.0,29,0.00,,OVC021,0.00,0.00,VWS V14.01,2013-01-26 00:30:00,
2013-01-25 19:35:00,19.5,-6.9,30.06,NW,312,5.0,7.0,30,0.00,,OVC021,0.00,0.00,VWS V14.01,2013-01-26 00:35:00,
2013-01-25 19:40:00,19.5,-6.9,30.06,NW,313,2.0,7.0,30,0.00,,OVC021,0.00,0.00,VWS V14.01,2013-01-26 00:40:00,
2013-01-25 19:45:00,19.5,-6.9,30.06,WNW,290,2.0,4.0,30,0.00,,OVC021,0.00,0.00,VWS V14.01,2013-01-26 00:45:00,
2013-01-25 19:50:00,19.5,-6.9,30.05,WNW,298,4.0,4.0,30,0.00,,OVC021,0.00,0.00,VWS V14.01,2013-01-26 00:50:00,
2013-01-25 19:55:00,19.4,-7.0,30.06,WNW,297,2.0,5.0,30,0.00,,OVC021,0.00,0.00,VWS V14.01,2013-01-26 00:55:00,
2013-01-25 20:00:00,19.4,-6.3,30.06,WNW,298,0.0,4.0,31,0.00,,OVC021,0.00,0.00,VWS V14.01,2013-01-26 01:00:00,
2013-01-25 20:05:00,19.4,-6.3,30.05,WNW,297,0.0,2.0,31,0.00,,OVC021,0.00,0.00,VWS V14.01,2013-01-26 01:05:00,
2013-01-25 20:10:00,19.3,-7.1,30.05,WNW,298,2.0,5.0,30,0.00,,OVC021,0.00,0.00,VWS V14.01,2013-01-26 01:10:00,
2013-01-25 20:15:00,19.3,-7.1,30.05,WNW,298,3.0,4.0,30,0.00,,OVC021,0.00,0.00,VWS V14.01,2013-01-26 01:15:00,
2013-01-25 20:20:00,19.3,-6.4,30.04,WNW,297,1.0,6.0,31,0.00,,OVC021,0.00,0.00,VWS V14.01,2013-01-26 01:20:00,
2013-01-25 20:25:00,19.2,-7.1,30.04,NW,315,2.0,5.0,30,0.00,,OVC021,0.00,0.00,VWS V14.01,2013-01-26 01:25:00,
2013-01-25 20:30:00,19.3,-6.4,30.04,NW,314,1.0,3.0,31,0.00,,OVC021,0.00,0.00,VWS V14.01,2013-01-26 01:30:00,
2013-01-25 20:35:00,19.2,-6.5,30.04,NW,315,1.0,3.0,31,0.00,,OVC021,0.00,0.00,VWS V14.01,2013-01-26 01:35:00,
2013-01-25 20:40:00,19.2,-7.1,30.03,NW,314,0.0,2.0,30,0.00,,OVC021,0.00,0.00,VWS V14.01,2013-01-26 01:40:00,
2013-01-25 20:45:00,19.2,-6.5,30.03,NW,315,0.0,2.0,31,0.00,,OVC021,0.00,0.00,VWS V14.01,2013-01-26 01:45:00,
2013-01-25 20:50:00,19.1,-6.6,30.03,NW,315,0.0,2.0,31,0.00,,OVC021,0.00,0.00,VWS V14.01,2013-01-26 01:50:00,
2013-01-25 20:55:00,19.1,-5.9,30.03,NW,314,0.0,1.0,32,0.00,,OVC021,0.00,0.00,VWS V14.01,2013-01-26 01:55:00,
2013-01-25 21:00:00,19.1,-5.9,30.03,NW,315,4.0,4.0,32,0.00,,OVC021,0.00,0.00,VWS V14.01,2013-01-26 02:00:00,
2013-01-25 21:05:00,19.1,-6.6,30.03,West,275,2.0,5.0,31,0.00,,OVC021,0.00,0.00,VWS V14.01,2013-01-26 02:05:00,
2013-01-25 21:10:00,19.2,-5.2,30.03,West,275,1.0,4.0,33,0.00,,OVC021,0.00,0.00,VWS V14.01,2013-01-26 02:10:00,
2013-01-25 21:15:00,19.2,-5.8,30.03,West,275,0.0,3.0,32,0.00,,OVC021,0.00,0.00,VWS V14.01,2013-01-26 02:15:00,
2013-01-25 21:20:00,19.1,-5.3,30.03,West,275,1.0,2.0,33,0.00,,OVC021,0.00,0.00,VWS V14.01,2013-01-26 02:20:00,
2013-01-25 21:25:00,19.1,-5.9,30.02,West,275,0.0,2.0,32,0.00,,OVC021,0.00,0.00,VWS V14.01,2013-01-26 02:25:00,
2013-01-25 21:30:00,19.0,-6.0,30.02,West,275,1.0,2.0,32,0.00,,OVC021,0.00,0.00,VWS V14.01,2013-01-26 02:30:00,
2013-01-25 21:35:00,19.0,-5.3,30.03,West,275,1.0,3.0,33,0.00,,OVC021,0.00,0.00,VWS V14.01,2013-01-26 02:35:00,
2013-01-25 21:40:00,19.0,-4.7,30.02,West,275,1.0,3.0,34,0.00,,OVC021,0.00,0.00,VWS V14.01,2013-01-26 02:40:00,
2013-01-25 21:45:00,19.0,-5.3,30.02,West,275,3.0,4.0,33,0.00,,OVC021,0.00,0.00,VWS V14.01,2013-01-26 02:45:00,
2013-01-25 21:50:00,19.0,-5.3,30.02,West,275,3.0,3.0,33,0.00,,OVC021,0.00,0.00,VWS V14.01,2013-01-26 02:50:00,
2013-01-25 21:55:00,19.0,-4.7,30.02,West,275,1.0,3.0,34,0.00,,OVC021,0.00,0.00,VWS V14.01,2013-01-26 02:55:00,
2013-01-25 22:00:00,19.0,-3.5,30.02,WSW,252,2.0,5.0,36,0.00,,OVC021,0.00,0.00,VWS V14.01,2013-01-26 03:00:00,
2013-01-25 22:05:00,18.9,-2.0,30.02,WSW,252,2.0,5.0,39,0.00,,OVC021,0.00,0.00,VWS V14.01,2013-01-26 03:05:00,
2013-01-25 22:10:00,18.5,0.2,30.02,SW,218,1.0,8.0,44,0.00,,OVC021,0.00,0.00,VWS V14.01,2013-01-26 03:10:00,
2013-01-25 22:15:00,18.2,1.8,30.02,WNW,291,4.0,7.0,48,0.00,,OVC021,0.00,0.00,VWS V14.01,2013-01-26 03:15:00,
2013-01-25 22:20:00,17.9,2.0,30.01,WNW,286,3.0,5.0,49,0.00,,OVC021,0.00,0.00,VWS V14.01,2013-01-26 03:20:00,
2013-01-25 22:25:00,17.9,2.4,30.01,WNW,284,2.0,4.0,50,0.00,,OVC021,0.00,0.00,VWS V14.01,2013-01-26 03:25:00,
2013-01-25 22:30:00,17.7,3.1,30.01,WNW,283,2.0,4.0,52,0.00,,OVC021,0.00,0.00,VWS V14.01,2013-01-26 03:30:00,
2013-01-25 22:35:00,17.7,3.5,30.01,WSW,253,1.0,4.0,53,0.00,,OVC021,0.00,0.00,VWS V14.01,2013-01-26 03:35:00,
2013-01-25 22:40:00,17.6,4.2,30.01,WSW,252,3.0,5.0,55,0.00,,OVC021,0.00,0.00,VWS V14.01,2013-01-26 03:40:00,
2013-01-25 22:45:00,17.4,5.2,30.01,WSW,252,0.0,4.0,58,0.00,,OVC021,0.00,0.00,VWS V14.01,2013-01-26 03:45:00,
2013-01-25 22:50:00,17.2,5.3,30.01,WSW,252,1.0,4.0,59,0.00,,OVC021,0.00,0.00,VWS V14.01,2013-01-26 03:50:00,
2013-01-25 22:55:00,17.1,6.0,30.01,WSW,253,0.0,2.0,61,0.00,,OVC021,0.00,0.00,VWS V14.01,2013-01-26 03:55:00,
2013-01-25 23:00:00,16.9,6.2,30.01,WSW,252,0.0,3.0,62,0.00,,OVC021,0.00,0.00,VWS V14.01,2013-01-26 04:00:00,
2013-01-25 23:05:00,16.9,6.5,30.01,WSW,252,0.0,1.0,63,0.00,,OVC021,0.00,0.00,VWS V14.01,2013-01-26 04:05:00,
2013-01-25 23:10:00,16.8,7.1,30.01,WSW,252,1.0,1.0,65,0.00,,OVC021,0.00,0.00,VWS V14.01,2013-01-26 04:10:00,
2013-01-25 23:15:00,16.7,7.0,30.01,WSW,252,0.0,1.0,65,0.00,,OVC021,0.00,0.00,VWS V14.01,2013-01-26 04:15:00,
2013-01-25 23:20:00,16.7,7.0,30.01,WSW,252,3.0,3.0,65,0.00,,OVC021,0.00,0.00,VWS V14.01,2013-01-26 04:20:00,
2013-01-25 23:25:00,16.7,7.0,30.01,NW,315,2.0,7.0,65,0.00,,OVC021,0.00,0.00,VWS V14.01,2013-01-26 04:25:00,
2013-01-25 23:30:00,16.7,7.0,30.01,WNW,302,1.0,4.0,65,0.00,,OVC021,0.00,0.00,VWS V14.01,2013-01-26 04:30:00,
2013-01-25 23:35:00,16.6,6.9,30.01,NNW,327,2.0,6.0,65,0.00,,OVC021,0.00,0.00,VWS V14.01,2013-01-26 04:35:00,
2013-01-25 23:40:00,16.6,7.2,30.01,NNW,327,0.0,3.0,66,0.00,,OVC021,0.00,0.00,VWS V14.01,2013-01-26 04:40:00,
2013-01-25 23:45:00,16.5,7.5,30.01,NW,310,1.0,4.0,67,0.00,,OVC021,0.00,0.00,VWS V14.01,2013-01-26 04:45:00,
2013-01-25 23:50:00,16.5,7.5,30.00,NW,317,1.0,4.0,67,0.00,,OVC021,0.00,0.00,VWS V14.01,2013-01-26 04:50:00,
2013-01-25 23:55:00,16.4,7.7,30.00,NW,317,1.0,3.0,68,0.00,,OVC021,0.00,0.00,VWS V14.01,2013-01-26 04:55:00,